{"data":{"norad_id":65499,"epoch":"2026-09-20T05:44:41.108352Z","epoch_age_seconds":134513,"freshness":"FRESH","line1":"1 65499U 25198H   26263.23936468  .00015180  00000+0  45952-3 0  9990","line2":"2 65499  53.1588  84.6972 0001501  96.2543 263.8631 15.34397031 58443","mean_motion":15.34397031,"eccentricity":0.0001501,"inclination_deg":53.1588,"raan_deg":84.6972,"arg_perigee_deg":96.2543,"mean_anomaly_deg":263.8631,"bstar":0.00045952,"rev_number":5844,"period_min":93.847939673184,"perigee_km":461.68525327041,"apogee_km":463.73887615964,"semimajor_km":6840.849064715,"source":"CELESTRAK","updated_at":"2026-09-21T09:00:35.642348Z"}}